| time (UTC) | temp F | wind direction | speed knots | gust knots | rain 1hr in | rain 24hr in | rain mn in | humidity % | barometer mb |
| 20260504191933 | 66 | 217 | 5.2 | 0.0 | 0.00 | 0.00 | 0.00 | 86 | 1011.7 |
| 20260504190926 | 66 | 211 | 5.2 | 0.0 | 0.00 | 0.00 | 0.00 | 86 | 1011.6 |
| 20260504185919 | 66 | 215 | 6.1 | 0.0 | 0.00 | 0.00 | 0.00 | 86 | 1011.5 |
| 20260504184936 | 66 | 232 | 5.2 | 0.0 | 0.00 | 0.00 | 0.00 | 86 | 1011.4 |
| 20260504183929 | 66 | 212 | 6.1 | 0.0 | 0.00 | 0.00 | 0.00 | 85 | 1011.3 |
| 20260504182921 | 66 | 184 | 7.0 | 0.0 | 0.00 | 0.00 | 0.00 | 86 | 1011.3 |
| 20260504181917 | 66 | 227 | 7.8 | 0.0 | 0.00 | 0.00 | 0.00 | 86 | 1011.2 |
| 20260504180928 | 66 | 204 | 8.7 | 0.0 | 0.00 | 0.00 | 0.00 | 85 | 1011.2 |
| 20260504175918 | 67 | 222 | 7.8 | 0.0 | 0.00 | 0.00 | 0.00 | 85 | 1011.2 |
| 20260504174931 | 67 | 213 | 9.6 | 0.0 | 0.00 | 0.00 | 0.00 | 85 | 1011.2 |
| 20260504172922 | 67 | 219 | 8.7 | 0.0 | 0.00 | 0.00 | 0.00 | 85 | 1011.3 |
| 20260504171933 | 68 | 232 | 8.7 | 0.0 | 0.00 | 0.00 | 0.00 | 84 | 1011.3 |
| 20260504170925 | 68 | 223 | 10.4 | 0.0 | 0.00 | 0.00 | 0.00 | 84 | 1011.3 |
| 20260504081918 | 66 | 154 | 3.5 | 0.0 | 0.00 | 0.00 | 0.00 | 91 | 1013.2 |
| 20260504080932 | 66 | 177 | 2.6 | 0.0 | 0.00 | 0.00 | 0.00 | 91 | 1013.2 |
| 20260504045922 | 63 | 261 | 0.0 | 0.0 | 0.00 | 0.00 | 0.00 | 90 | 1012.5 |
| 20260504044934 | 63 | 261 | 0.0 | 0.0 | 0.00 | 0.00 | 0.00 | 90 | 1012.3 |
| 20260504043931 | 63 | 261 | 0.0 | 0.0 | 0.00 | 0.00 | 0.00 | 90 | 1012.2 |
| 20260504042925 | 63 | 261 | 0.0 | 0.0 | 0.00 | 0.00 | 0.00 | 90 | 1012.2 |
| 20260504041918 | 64 | 261 | 0.0 | 0.0 | 0.00 | 0.00 | 0.00 | 89 | 1012.2 |
| 20260504040929 | 64 | 261 | 0.0 | 0.0 | 0.00 | 0.00 | 0.00 | 89 | 1012.3 |
| 20260504035924 | 64 | 261 | 0.0 | 0.0 | 0.00 | 0.00 | 0.00 | 89 | 1012.4 |
| 20260504034936 | 64 | 261 | 0.0 | 0.0 | 0.00 | 0.00 | 0.00 | 89 | 1012.4 |
| 20260504032922 | 64 | 261 | 0.9 | 0.0 | 0.00 | 0.00 | 0.00 | 89 | 1012.8 |
| 20260504031920 | 65 | 260 | 0.0 | 0.0 | 0.00 | 0.00 | 0.00 | 89 | 1012.9 |
| 20260504030918 | 64 | 260 | 0.0 | 0.0 | 0.00 | 0.00 | 0.00 | 89 | 1013.0 |
| 20260504024936 | 65 | 260 | 0.0 | 0.0 | 0.00 | 0.00 | 0.00 | 89 | 1013.3 |
| 20260504023926 | 65 | 260 | 0.0 | 0.0 | 0.00 | 0.00 | 0.00 | 89 | 1013.2 |
| 20260504021932 | 65 | 260 | 0.0 | 0.0 | 0.00 | 0.00 | 0.00 | 89 | 1013.2 |
| 20260504020923 | 65 | 260 | 0.0 | 0.0 | 0.00 | 0.00 | 0.00 | 89 | 1013.2 |
| 20260504014923 | 65 | 260 | 0.0 | 0.0 | 0.00 | 0.00 | 0.00 | 88 | 1013.5 |
| 20260504013918 | 65 | 260 | 0.0 | 0.0 | 0.00 | 0.00 | 0.00 | 88 | 1013.5 |
| 20260504010935 | 65 | 261 | 0.0 | 0.0 | 0.00 | 0.00 | 0.00 | 88 | 1013.1 |
| 20260504005929 | 65 | 260 | 0.0 | 0.0 | 0.00 | 0.00 | 0.00 | 88 | 1013.1 |
| 20260504004921 | 65 | 260 | 0.0 | 0.0 | 0.00 | 0.00 | 0.00 | 88 | 1013.0 |
| 20260504003933 | 65 | 260 | 0.0 | 0.0 | 0.00 | 0.00 | 0.00 | 88 | 1013.0 |
| 20260504001920 | 65 | 260 | 0.9 | 0.0 | 0.00 | 0.00 | 0.00 | 88 | 1013.4 |
| 20260504000932 | 65 | 260 | 1.7 | 0.0 | 0.00 | 0.00 | 0.00 | 88 | 1013.5 |
| 20260503235922 | 65 | 260 | 1.7 | 0.0 | 0.00 | 0.00 | 0.13 | 88 | 1013.6 |
| 20260503234919 | 66 | 260 | 1.7 | 0.0 | 0.00 | 0.00 | 0.13 | 87 | 1013.8 |
| 20260503233931 | 66 | 256 | 0.0 | 0.0 | 0.00 | 0.00 | 0.13 | 87 | 1013.9 |
| 20260503232923 | 66 | 256 | 0.0 | 0.0 | 0.00 | 0.00 | 0.13 | 87 | 1014.0 |
| 20260503231933 | 66 | 256 | 0.9 | 0.0 | 0.00 | 0.00 | 0.13 | 87 | 1014.2 |
| 20260503230929 | 66 | 256 | 1.7 | 0.0 | 0.00 | 0.00 | 0.13 | 87 | 1014.3 |
| 20260503225919 | 66 | 254 | 2.6 | 0.0 | 0.00 | 0.00 | 0.13 | 87 | 1014.3 |
| 20260503222922 | 65 | 246 | 2.6 | 0.0 | 0.00 | 0.00 | 0.13 | 89 | 1014.3 |
| 20260503221933 | 65 | 225 | 2.6 | 0.0 | 0.00 | 0.00 | 0.13 | 89 | 1014.3 |
| 20260503220926 | 65 | 163 | 2.6 | 0.0 | 0.00 | 0.00 | 0.13 | 89 | 1014.1 |
| 20260503214931 | 66 | 97 | 0.0 | 0.0 | 0.00 | 0.00 | 0.13 | 90 | 1013.9 |
| 20260503213921 | 65 | 97 | 0.0 | 0.0 | 0.00 | 0.00 | 0.13 | 90 | 1013.8 |
| 20260503212933 | 65 | 97 | 0.0 | 0.0 | 0.00 | 0.00 | 0.13 | 90 | 1013.8 |
| 20260503211927 | 65 | 97 | 0.0 | 0.0 | 0.00 | 0.00 | 0.13 | 90 | 1013.7 |
| 20260503210917 | 65 | 97 | 0.0 | 0.0 | 0.00 | 0.00 | 0.13 | 90 | 1013.7 |
| 20260503205928 | 66 | 97 | 0.0 | 0.0 | 0.00 | 0.00 | 0.13 | 90 | 1013.6 |
| 20260503203915 | 66 | 97 | 0.0 | 0.0 | 0.00 | 0.00 | 0.13 | 90 | 1013.6 |
| 20260503202926 | 66 | 97 | 0.0 | 0.0 | 0.00 | 0.00 | 0.13 | 90 | 1013.6 |
| 20260503201937 | 66 | 97 | 0.0 | 0.0 | 0.00 | 0.00 | 0.13 | 90 | 1013.4 |
| 20260503195921 | 66 | 97 | 0.9 | 0.0 | 0.00 | 0.00 | 0.13 | 90 | 1013.3 |
| 20260503194933 | 66 | 97 | 0.0 | 0.0 | 0.00 | 0.00 | 0.13 | 90 | 1013.3 |
| 20260503193925 | 66 | 97 | 0.9 | 0.0 | 0.00 | 0.00 | 0.13 | 90 | 1013.1 |